• In Moldova, Republic
  • List of Countries
  • For 7 days
  • Water Temperature
  • Satellite Maps
  • Weather Map
  • Weather Widgets
  • user-avatar
    Login

    Hourly Weather Wien

    Today, 24 March, Friday

    Time Temperature Precipitation Wind Pressure Humidity
    00:00 +6°C° 0 mm 2 mps 745 mmHg 89%
    01:00 +6°C° 0 mm 2 mps 745 mmHg 92%
    02:00 +5°C° 0 mm 2 mps 746 mmHg 92%
    03:00 +5°C° 0 mm 2 mps 746 mmHg 93%
    04:00 +5°C° 0 mm 2 mps 746 mmHg 94%
    05:00 +4°C° 0 mm 3 mps 747 mmHg 92%
    06:00 +4°C° 0 mm 3 mps 747 mmHg 91%
    07:00 +5°C° 0 mm 3 mps 748 mmHg 90%
    08:00 +6°C° 0 mm 4 mps 748 mmHg 84%
    09:00 +8°C° 0 mm 4 mps 748 mmHg 79%
    10:00 +11°C° 0 mm 4 mps 749 mmHg 73%
    11:00 +12°C° 0 mm 4 mps 749 mmHg 71%
    12:00 +12°C° 0 mm 4 mps 749 mmHg 68%
    13:00 +13°C° 0 mm 4 mps 749 mmHg 66%
    14:00 +13°C° 0 mm 4 mps 749 mmHg 67%
    15:00 +13°C° 0 mm 4 mps 749 mmHg 68%
    16:00 +12°C° 0 mm 5 mps 749 mmHg 68%
    17:00 +11°C° 0 mm 4 mps 750 mmHg 73%
    18:00 +8°C° 0 mm 4 mps 750 mmHg 77%
    19:00 +7°C° 0 mm 4 mps 750 mmHg 82%
    20:00 +6°C° 0 mm 4 mps 751 mmHg 83%
    21:00 +5°C° 0 mm 4 mps 751 mmHg 85%
    22:00 +4°C° 0 mm 4 mps 752 mmHg 86%
    23:00 +4°C° 0 mm 3 mps 752 mmHg 86%

    Tomorrow, 25 March, Saturday

    Time Temperature Precipitation Wind Pressure Humidity
    00:00 +3°C° 0 mm 3 mps 752 mmHg 87%
    01:00 +3°C° 0 mm 3 mps 753 mmHg 87%
    02:00 +2°C° 0 mm 3 mps 752 mmHg 88%
    03:00 +2°C° 0 mm 3 mps 752 mmHg 88%
    04:00 +3°C° 0 mm 2 mps 752 mmHg 89%
    05:00 +3°C° 0 mm 2 mps 752 mmHg 87%
    06:00 +3°C° 0 mm 2 mps 752 mmHg 86%
    07:00 +4°C° 0 mm 2 mps 752 mmHg 84%
    08:00 +5°C° 0 mm 2 mps 752 mmHg 77%
    09:00 +7°C° 0 mm 2 mps 752 mmHg 70%
    10:00 +9°C° 0 mm 2 mps 752 mmHg 63%
    11:00 +10°C° 0 mm 2 mps 752 mmHg 59%
    12:00 +12°C° 0 mm 2 mps 751 mmHg 55%
    13:00 +13°C° 0 mm 2 mps 751 mmHg 51%
    14:00 +13°C° 0 mm 2 mps 750 mmHg 51%
    15:00 +13°C° 0 mm 2 mps 749 mmHg 50%
    16:00 +13°C° 0 mm 2 mps 749 mmHg 50%
    17:00 +10°C° 0 mm 2 mps 748 mmHg 56%
    18:00 +9°C° 0 mm 1 mps 748 mmHg 63%
    19:00 +7°C° 0 mm 1 mps 748 mmHg 69%
    20:00 +7°C° 0 mm 1 mps 748 mmHg 70%
    21:00 +6°C° 0 mm 1 mps 748 mmHg 71%
    22:00 +6°C° 0 mm 1 mps 748 mmHg 72%
    23:00 +5°C° 0 mm 1 mps 747 mmHg 73%

    Day after tomorrow, 26 March, Sunday

    Time Temperature Precipitation Wind Pressure Humidity
    00:00 +5°C° 0 mm 1 mps 747 mmHg 73%
    01:00 +5°C° 0 mm 1 mps 747 mmHg 73%
    02:00 +5°C° 0 mm 1 mps 746 mmHg 75%
    03:00 +4°C° 0 mm 1 mps 746 mmHg 76%
    04:00 +3°C° 0 mm 2 mps 746 mmHg 77%
    05:00 +4°C° 0 mm 2 mps 746 mmHg 76%
    06:00 +4°C° 0 mm 2 mps 746 mmHg 75%
    07:00 +4°C° 0 mm 2 mps 746 mmHg 74%
    08:00 +6°C° 0 mm 2 mps 746 mmHg 69%
    09:00 +8°C° 0 mm 3 mps 746 mmHg 65%
    10:00 +9°C° 0 mm 3 mps 746 mmHg 60%
    11:00 +10°C° 0 mm 4 mps 746 mmHg 59%
    12:00 +10°C° 0 mm 4 mps 746 mmHg 58%
    13:00 +10°C° 0 mm 5 mps 746 mmHg 57%
    14:00 +10°C° 0 mm 5 mps 746 mmHg 57%
    15:00 +10°C° 0 mm 5 mps 746 mmHg 57%
    16:00 +11°C° 0 mm 4 mps 746 mmHg 56%
    17:00 +8°C° 0 mm 4 mps 747 mmHg 62%
    18:00 +8°C° 0 mm 3 mps 747 mmHg 67%
    19:00 +5°C° 0 mm 3 mps 748 mmHg 73%
    20:00 +6°C° 0 mm 2 mps 748 mmHg 75%
    21:00 +5°C° 0 mm 2 mps 749 mmHg 77%
    22:00 +4°C° 0 mm 2 mps 749 mmHg 79%
    23:00 +4°C° 0 mm 2 mps 750 mmHg 80%

    27 March, Monday

    Time Temperature Precipitation Wind Pressure Humidity
    00:00 +3°C° 0 mm 2 mps 750 mmHg 82%
    01:00 +2°C° 0 mm 2 mps 750 mmHg 84%
    02:00 +2°C° 0 mm 2 mps 750 mmHg 84%
    03:00 +2°C° 0 mm 2 mps 750 mmHg 84%
    04:00 +2°C° 0 mm 2 mps 750 mmHg 85%
    05:00 +2°C° 0 mm 2 mps 750 mmHg 82%
    06:00 +3°C° 0 mm 2 mps 750 mmHg 79%
    07:00 +5°C° 0 mm 1 mps 750 mmHg 76%
    08:00 +6°C° 0 mm 2 mps 750 mmHg 67%
    09:00 +8°C° 0 mm 2 mps 751 mmHg 57%
    10:00 +10°C° 0 mm 2 mps 751 mmHg 48%
    11:00 +12°C° 0 mm 2 mps 750 mmHg 45%
    12:00 +13°C° 0 mm 2 mps 750 mmHg 42%
    13:00 +13°C° 0 mm 3 mps 750 mmHg 40%
    14:00 +14°C° 0 mm 2 mps 750 mmHg 41%
    15:00 +14°C° 0 mm 2 mps 749 mmHg 42%
    16:00 +14°C° 0 mm 2 mps 749 mmHg 44%
    17:00 +10°C° 0 mm 2 mps 749 mmHg 52%
    18:00 +9°C° 0 mm 1 mps 749 mmHg 60%
    19:00 +7°C° 0 mm 1 mps 750 mmHg 68%
    20:00 +7°C° 0 mm 1 mps 750 mmHg 69%
    21:00 +7°C° 0 mm 1 mps 750 mmHg 71%
    22:00 +6°C° 0 mm 1 mps 750 mmHg 72%
    23:00 +6°C° 0 mm 1 mps 750 mmHg 73%

    28 March, Tuesday

    Time Temperature Precipitation Wind Pressure Humidity
    00:00 +6°C° 0 mm 1 mps 750 mmHg 74%
    01:00 +6°C° 0 mm 1 mps 750 mmHg 75%
    02:00 +5°C° 0 mm 1 mps 750 mmHg 78%
    03:00 +5°C° 0 mm 1 mps 750 mmHg 81%
    04:00 +4°C° 0 mm 1 mps 750 mmHg 83%
    05:00 +5°C° 0 mm 1 mps 750 mmHg 81%
    06:00 +6°C° 0 mm 1 mps 750 mmHg 79%
    07:00 +7°C° 0 mm 1 mps 750 mmHg 77%
    08:00 +9°C° 0 mm 1 mps 750 mmHg 69%
    09:00 +12°C° 0 mm 1 mps 750 mmHg 62%
    10:00 +14°C° 0 mm 1 mps 751 mmHg 55%
    11:00 +15°C° 0 mm 1 mps 750 mmHg 52%
    12:00 +16°C° 0 mm 2 mps 750 mmHg 49%
    13:00 +17°C° 0 mm 2 mps 750 mmHg 46%
    14:00 +17°C° 0 mm 2 mps 749 mmHg 47%
    15:00 +17°C° 0 mm 2 mps 749 mmHg 47%
    16:00 +19°C° 0 mm 1 mps 749 mmHg 48%
    17:00 +15°C° 0 mm 1 mps 749 mmHg 57%
    18:00 +12°C° 0 mm 1 mps 749 mmHg 66%
    19:00 +10°C° 0 mm 1 mps 749 mmHg 75%
    20:00 +10°C° 0 mm 1 mps 749 mmHg 77%
    21:00 +9°C° 0 mm 1 mps 750 mmHg 79%
    22:00 +9°C° 0 mm 1 mps 750 mmHg 81%
    23:00 +9°C° 0 mm 1 mps 750 mmHg 82%

    29 March, Wednesday

    Time Temperature Precipitation Wind Pressure Humidity
    00:00 +8°C° 0 mm 1 mps 750 mmHg 83%
    01:00 +7°C° 0 mm 2 mps 750 mmHg 84%
    02:00 +7°C° 0 mm 2 mps 750 mmHg 86%
    03:00 +7°C° 0 mm 2 mps 750 mmHg 87%
    04:00 +7°C° 0 mm 2 mps 750 mmHg 88%
    05:00 +7°C° 0 mm 2 mps 751 mmHg 86%
    06:00 +8°C° 0 mm 2 mps 751 mmHg 84%
    07:00 +9°C° 0 mm 2 mps 751 mmHg 83%
    08:00 +12°C° 0 mm 2 mps 751 mmHg 74%
    09:00 +14°C° 0 mm 3 mps 751 mmHg 65%
    10:00 +17°C° 0 mm 3 mps 751 mmHg 57%
    11:00 +18°C° 0 mm 3 mps 751 mmHg 53%
    12:00 +19°C° 0 mm 3 mps 751 mmHg 50%
    13:00 +20°C° 0 mm 3 mps 751 mmHg 47%
    14:00 +20°C° 0 mm 3 mps 751 mmHg 48%
    15:00 +20°C° 0 mm 3 mps 750 mmHg 49%
    16:00 +20°C° 0 mm 2 mps 750 mmHg 50%
    17:00 +18°C° 0 mm 2 mps 750 mmHg 59%
    18:00 +15°C° 0 mm 2 mps 750 mmHg 68%
    19:00 +13°C° 0 mm 2 mps 750 mmHg 77%
    20:00 +12°C° 0 mm 2 mps 750 mmHg 79%
    21:00 +12°C° 0 mm 2 mps 750 mmHg 81%
    22:00 +12°C° 0 mm 2 mps 751 mmHg 84%
    23:00 +10°C° 0 mm 2 mps 751 mmHg 85%
    Show more